Other Public Products
Issued by NWS Charleston, SC

Current Version | Previous Version | Graphics & Text | Print | Product List | Glossary On
Versions: 1 2 3 4 5 6 7 8 9 10 11 12 13 14 15 16 17 18 19 20 21 22 23 24 25 26 27 28 29 30 31 32 33 34 35 36 37 38 39 40 41 42 43 44 45 46 47 48 49 50
593 FPUS82 KCHS 220327 OPUCHS TEST...KCHS/KSAV Gateway Observations...TEST National Weather Service Charleston SC 1100 PM EDT SAT APR 21 2018 NOTE: "fair" indicates few or no clouds below 12,000 feet with no significant weather and/or obstructions to visibility. SCZ050-WAZ558-NCZ071-TXZ119-213-PAZ071-DCZ001-FLZ074-172-MI076- NYZ176-178-MAZ016-IL014-TNZ027-NJZ106-GAZ044-MD014-220400- ...Gateway Observations for Charleston International... CITY SKY/WX TMP DP RH WIND PRES REMARKS Chas Airport FAIR 58 52 80 NE7 30.33F Seattle MOCLDY 52 36 54 N9 30.39F Charlotte FAIR 59 37 44 S9 30.33R Dallas DFW CLOUDY 54 54 100 N15 29.99R Dallas Love CLOUDY 56 55 97 N18G26 30.01R FOG Philladelphia MOCLDY 52 31 44 SW5 30.36S Wash National CLOUDY 54 35 48 S6 30.39R Baltimore CLOUDY 47 33 58 CALM 30.37S Miami FAIR 77 71 82 E12 30.11R Detroit MOCLDY 43 22 43 CALM 30.42S Newark MOCLDY 55 27 34 NW10 30.34R Laguardia FAIR 55 23 28 NW9 30.33R J F K MOCLDY 52 24 33 NW10 30.35R Boston Logan FAIR 46 32 58 E3 30.30R Ft. Lauderdale MOCLDY 79 74 84 E16 30.11R Chicago O`Hare CLOUDY 47 16 29 E5 30.40R Chicago Midway CLOUDY 47 19 33 E5 30.40R Houston Bush LGT RAIN 70 69 97 SE16G24 29.87F Houston Hobby CLOUDY 70 70 100 SE10G23 29.84F THUNDER Nashville MOCLDY 60 38 43 CALM 30.21R Atlanta MOCLDY 63 40 42 E8 30.25F $$ GAZ044-118-TXZ119-213-NCZ071-DCZ001-MDZ014-506-PAZ021-071-NJZ106- NYZ176-178-MAZ106-OHZ011-021-055-MIZ076-KYZ091-ILZ014-INZ047- MNZ060-ONZ431-220400- ...Gateway Observations for Savannah International... CITY SKY/WX TMP DP RH WIND PRES REMARKS Savannah Arpt CLOUDY 63 55 75 NE8 30.31R Atlanta MOCLDY 63 40 42 E8 30.25F Charlotte FAIR 59 37 44 S9 30.33R Dallas DFW CLOUDY 54 54 100 N15 29.99R Houston Bush LGT RAIN 70 69 97 SE16G24 29.87F Wash National CLOUDY 54 35 48 S6 30.39R Wash Dulles CLOUDY 49 34 56 SE3 30.37S Baltimore CLOUDY 47 33 58 CALM 30.37S Philadelphia MOCLDY 52 31 44 SW5 30.36S Newark MOCLDY 55 27 34 NW10 30.34R Laguardia FAIR 55 23 28 NW9 30.33R J F K MOCLDY 52 24 33 NW10 30.35R Boston FAIR 46 32 58 E3 30.30R Pittsburg CLOUDY 51 23 33 N7 30.36R Akron CLOUDY 47 27 45 NE10 30.38R Cleveland MOCLDY 40 32 73 N3 30.43S Cincinnati CLOUDY 54 21 27 NE12 30.32F Columbus FAIR 49 25 38 NE7 30.35S Detroit MOCLDY 43 22 43 CALM 30.42S Chicago O`Hare CLOUDY 47 16 29 E5 30.40R Minneapolis FAIR 52 34 50 SW6 30.36R Indianapolis CLOUDY 54 23 30 E12 30.33S Toronto Canada CLEAR 45 23 42 NW7 30.40S $$

USA.gov is the U.S. government's official web portal to all federal, state and local government web resources and services.